Location: Beetenbrück
(52.8113°N, 9.5946°E)
Time: 22:13:33
(UTC+00:00)

Cosmos 1933 Rocket - Pass Details

Date: 14 April 2026
Orbit: 601 x 622 km, 82.5° (Epoch: 12 May)

Event Time Altitude Azimuth Distance (km) Brightness Sun altitude
Rises 19:06:43 0° 179° (S) 2,869 6.7 -7.5°
Reaches altitude 10° 19:08:56 10° 175° (S) 1,972 5.8 -7.8°
Maximum altitude 19:13:14 60° 96° (E) 709 3.6 -8.3°
Drops below altitude 10° 19:17:36 10° 17° (NNE) 2,000 6.3 -8.9°
Sets 19:19:52 0° 14° (NNE) 2,913 7.2 -9.2°
